When you browse on this site, cookies collect data to enhance your experience and personalize the content and advertising you see.
Visit our Privacy Policy to learn more. By continuing to use the site, you agree to this use of cookies and data.
  • In Spain
  • List of Countries
  • For 7 days
  • Water Temperature
  • Weather Map
  • Weather Widgets
  • user-avatar
    Login

    Hourly Weather Worcester

    Today, 6 December, Friday

    Time Temperature Precipitation Wind Pressure Humidity
    00:00 +10°C° 0 mm 7 mps 752 mmHg 87%
    01:00 +10°C° 0.1 mm 7 mps 751 mmHg 88%
    02:00 +10°C° 0.1 mm 7 mps 750 mmHg 90%
    03:00 +10°C° 0.1 mm 7 mps 750 mmHg 91%
    04:00 +10°C° 0.4 mm 7 mps 749 mmHg 91%
    05:00 +11°C° 0.4 mm 7 mps 749 mmHg 92%
    06:00 +11°C° 0 mm 6 mps 749 mmHg 91%
    07:00 +11°C° 0.1 mm 6 mps 748 mmHg 90%
    08:00 +11°C° 0.1 mm 7 mps 748 mmHg 89%
    09:00 +11°C° 0.1 mm 7 mps 747 mmHg 88%
    10:00 +11°C° 0.1 mm 7 mps 747 mmHg 85%
    11:00 +11°C° 0.1 mm 7 mps 747 mmHg 82%
    12:00 +11°C° 0.1 mm 7 mps 746 mmHg 78%
    13:00 +10°C° 0.6 mm 7 mps 746 mmHg 79%
    14:00 +9°C° 0.6 mm 8 mps 746 mmHg 81%
    15:00 +9°C° 0.6 mm 8 mps 745 mmHg 82%
    16:00 +8°C° 0.1 mm 7 mps 747 mmHg 82%
    17:00 +8°C° 0.1 mm 6 mps 748 mmHg 83%
    18:00 +8°C° 0.1 mm 6 mps 749 mmHg 83%
    19:00 +8°C° 0 mm 5 mps 749 mmHg 84%
    20:00 +7°C° 0 mm 5 mps 750 mmHg 85%
    21:00 +7°C° 0 mm 5 mps 751 mmHg 86%
    22:00 +7°C° 0 mm 5 mps 751 mmHg 87%
    23:00 +7°C° 0 mm 4 mps 752 mmHg 88%

    Tomorrow, 7 December, Saturday

    Time Temperature Precipitation Wind Pressure Humidity
    00:00 +6°C° 0 mm 4 mps 753 mmHg 89%
    01:00 +6°C° 0 mm 4 mps 753 mmHg 90%
    02:00 +6°C° 0 mm 4 mps 753 mmHg 91%
    03:00 +5°C° 0 mm 4 mps 753 mmHg 91%
    04:00 +5°C° 0 mm 4 mps 754 mmHg 92%
    05:00 +5°C° 0 mm 4 mps 754 mmHg 92%
    06:00 +5°C° 0 mm 4 mps 754 mmHg 92%
    07:00 +5°C° 0 mm 4 mps 755 mmHg 92%
    08:00 +5°C° 0 mm 4 mps 755 mmHg 91%
    09:00 +5°C° 0 mm 3 mps 755 mmHg 91%
    10:00 +6°C° 0 mm 4 mps 755 mmHg 88%
    11:00 +7°C° 0 mm 4 mps 755 mmHg 84%
    12:00 +8°C° 0 mm 5 mps 755 mmHg 80%
    13:00 +8°C° 0 mm 5 mps 755 mmHg 82%
    14:00 +8°C° 0 mm 4 mps 754 mmHg 83%
    15:00 +8°C° 0 mm 4 mps 754 mmHg 85%
    16:00 +8°C° 0 mm 5 mps 754 mmHg 87%
    17:00 +7°C° 0 mm 5 mps 753 mmHg 90%
    18:00 +7°C° 0 mm 5 mps 753 mmHg 92%
    19:00 +7°C° 0 mm 6 mps 752 mmHg 92%
    20:00 +6°C° 0 mm 7 mps 751 mmHg 91%
    21:00 +8°C° 0 mm 7 mps 751 mmHg 91%
    22:00 +7°C° 0.1 mm 8 mps 749 mmHg 89%
    23:00 +7°C° 0.1 mm 9 mps 748 mmHg 88%

    Day after tomorrow, 8 December, Sunday

    Time Temperature Precipitation Wind Pressure Humidity
    00:00 +8°C° 0.1 mm 9 mps 747 mmHg 86%
    01:00 +10°C° 0.3 mm 9 mps 746 mmHg 88%
    02:00 +11°C° 0.3 mm 9 mps 745 mmHg 89%
    03:00 +11°C° 0.3 mm 9 mps 743 mmHg 90%
    04:00 +10°C° 0 mm 8 mps 744 mmHg 87%
    05:00 +8°C° 0 mm 7 mps 744 mmHg 84%
    06:00 +7°C° 0 mm 5 mps 744 mmHg 80%
    07:00 +7°C° 0 mm 6 mps 745 mmHg 81%
    08:00 +5°C° 0 mm 6 mps 745 mmHg 82%
    09:00 +5°C° 0 mm 6 mps 745 mmHg 82%
    10:00 +5°C° 0 mm 7 mps 745 mmHg 77%
    11:00 +6°C° 0 mm 8 mps 745 mmHg 72%
    12:00 +6°C° 0 mm 9 mps 744 mmHg 67%
    13:00 +6°C° 0.1 mm 9 mps 744 mmHg 68%
    14:00 +6°C° 0.1 mm 8 mps 743 mmHg 68%
    15:00 +5°C° 0.1 mm 8 mps 743 mmHg 69%
    16:00 +5°C° 0 mm 8 mps 743 mmHg 71%
    17:00 +4°C° 0 mm 8 mps 742 mmHg 73%
    18:00 +4°C° 0 mm 8 mps 742 mmHg 75%
    19:00 +3°C° 0.1 mm 9 mps 741 mmHg 77%
    20:00 +3°C° 0.1 mm 10 mps 739 mmHg 80%
    21:00 +4°C° 0.1 mm 12 mps 738 mmHg 82%
    22:00 +4°C° 0.2 mm 11 mps 738 mmHg 80%
    23:00 +4°C° 0.2 mm 11 mps 737 mmHg 79%

    9 December, Monday

    Time Temperature Precipitation Wind Pressure Humidity
    00:00 +5°C° 0.2 mm 10 mps 736 mmHg 77%
    01:00 +5°C° 0.7 mm 9 mps 736 mmHg 80%
    02:00 +4°C° 0.7 mm 8 mps 736 mmHg 83%
    03:00 +4°C° 0.7 mm 7 mps 737 mmHg 87%
    04:00 +4°C° 0.1 mm 7 mps 738 mmHg 86%
    05:00 +4°C° 0.1 mm 7 mps 739 mmHg 86%
    06:00 +4°C° 0.1 mm 7 mps 740 mmHg 85%
    07:00 +4°C° 0 mm 7 mps 742 mmHg 82%
    08:00 +5°C° 0 mm 7 mps 744 mmHg 79%
    09:00 +5°C° 0 mm 8 mps 746 mmHg 76%
    10:00 +6°C° 0 mm 8 mps 748 mmHg 74%
    11:00 +6°C° 0 mm 8 mps 749 mmHg 72%
    12:00 +7°C° 0 mm 8 mps 751 mmHg 69%
    13:00 +6°C° 0 mm 7 mps 752 mmHg 69%
    14:00 +5°C° 0 mm 7 mps 753 mmHg 68%
    15:00 +5°C° 0 mm 6 mps 755 mmHg 67%
    16:00 +5°C° 0 mm 5 mps 756 mmHg 70%
    17:00 +4°C° 0 mm 4 mps 757 mmHg 73%
    18:00 +3°C° 0 mm 3 mps 759 mmHg 77%
    19:00 +2°C° 0 mm 3 mps 759 mmHg 78%
    20:00 +3°C° 0 mm 2 mps 760 mmHg 80%
    21:00 +2°C° 0 mm 2 mps 761 mmHg 81%
    22:00 +3°C° 0 mm 1 mps 761 mmHg 82%
    23:00 +3°C° 0 mm 1 mps 761 mmHg 82%

    10 December, Tuesday

    Time Temperature Precipitation Wind Pressure Humidity
    00:00 +3°C° 0 mm 1 mps 761 mmHg 82%
    01:00 +2°C° 0 mm 2 mps 761 mmHg 83%
    02:00 +2°C° 0 mm 2 mps 761 mmHg 84%
    03:00 +2°C° 0 mm 2 mps 760 mmHg 84%
    04:00 +2°C° 0 mm 3 mps 759 mmHg 85%
    05:00 +1°C° 0 mm 4 mps 759 mmHg 85%
    06:00 +2°C° 0 mm 5 mps 758 mmHg 86%
    07:00 +2°C° 0.1 mm 5 mps 757 mmHg 87%
    08:00 +3°C° 0.1 mm 6 mps 755 mmHg 88%
    09:00 +4°C° 0.1 mm 7 mps 754 mmHg 89%
    10:00 +5°C° 0.7 mm 8 mps 753 mmHg 90%
    11:00 +6°C° 0.7 mm 9 mps 751 mmHg 90%
    12:00 +7°C° 0.7 mm 10 mps 750 mmHg 91%
    13:00 +7°C° 0.4 mm 10 mps 748 mmHg 90%
    14:00 +8°C° 0.4 mm 10 mps 746 mmHg 90%
    15:00 +9°C° 0.4 mm 10 mps 744 mmHg 90%
    16:00 +9°C° 1.1 mm 10 mps 744 mmHg 89%
    17:00 +8°C° 1.1 mm 10 mps 744 mmHg 88%
    18:00 +8°C° 1.1 mm 11 mps 744 mmHg 86%
    19:00 +6°C° 0.5 mm 9 mps 745 mmHg 85%
    20:00 +5°C° 0.5 mm 7 mps 745 mmHg 83%
    21:00 +5°C° 0.5 mm 5 mps 746 mmHg 81%
    22:00 +3°C° 0 mm 5 mps 747 mmHg 81%
    23:00 +3°C° 0 mm 5 mps 748 mmHg 80%

    11 December, Wednesday

    Time Temperature Precipitation Wind Pressure Humidity
    00:00 +2°C° 0 mm 5 mps 748 mmHg 79%
    01:00 +2°C° 0 mm 5 mps 748 mmHg 80%
    02:00 +2°C° 0 mm 5 mps 748 mmHg 80%
    03:00 +1°C° 0 mm 5 mps 748 mmHg 80%
    04:00 +1°C° 0 mm 5 mps 748 mmHg 82%
    05:00 +1°C° 0 mm 5 mps 747 mmHg 83%
    06:00 +1°C° 0 mm 5 mps 747 mmHg 85%
    07:00 +1°C° 0 mm 5 mps 747 mmHg 84%
    08:00 +1°C° 0 mm 5 mps 747 mmHg 84%
    09:00 +1°C° 0 mm 4 mps 747 mmHg 83%
    10:00 +3°C° 0 mm 4 mps 746 mmHg 81%
    11:00 +3°C° 0 mm 5 mps 746 mmHg 78%
    12:00 +5°C° 0 mm 5 mps 746 mmHg 75%
    13:00 +5°C° 0.1 mm 4 mps 746 mmHg 77%
    14:00 +4°C° 0.1 mm 4 mps 745 mmHg 78%
    15:00 +4°C° 0.1 mm 4 mps 745 mmHg 80%
    16:00 +3°C° 0 mm 4 mps 745 mmHg 81%
    17:00 +1°C° 0 mm 4 mps 745 mmHg 83%
    18:00 +1°C° 0 mm 4 mps 745 mmHg 84%
    19:00 +1°C° 0 mm 4 mps 745 mmHg 83%
    20:00 +1°C° 0 mm 5 mps 745 mmHg 82%
    21:00 +1°C° 0 mm 5 mps 745 mmHg 81%
    22:00 +1°C° 0 mm 5 mps 744 mmHg 81%
    23:00 +1°C° 0 mm 6 mps 744 mmHg 81%
    Show more